GOES-R [S]

Last updated on Tue Jan 10 2017 00:16:45 GMT+0000 (Coordinated Universal Time)

1 41866U 16071A 17008.94661353 -.00000186 00000-0 00000+0 0 9998 2 41866 0.0356 169.1840 0000713 145.0291 45.7700 1.00263132 554

Satellite not in orbit

GOES-R [S]